Regional Weather Roundup
Issued by NWS

Home | Current Version | Previous Version | Graphics & Text | Print | Product List | Glossary On
Versions: 1 2 3 4 5 6 7 8 9 10 11 12 13 14 15 16 17 18 19 20 21 22 23 24 25 26 27
000
ASUS45 KCYS 271810
RWRWY

WYOMING REGIONAL WEATHER ROUNDUP
NATIONAL WEATHER SERVICE CHEYENNE WY
1200 PM MDT THU APR 27 2017

NOTE:  "FAIR" INDICATES FEW OR NO CLOUDS BELOW 12,000 FEET
WITH NO SIGNIFICANT WEATHER AND/OR OBSTRUCTIONS TO VISIBILITY.

WYZ001-271900-
YELLOWSTONE NATIONAL PARK

CITY           SKY/WX    TMP DP  RH WIND       PRES   REMARKS
LK YELLOWSTONE   N/A     30  23  75 NW14G23   29.64  WCI  19
6HR MIN TEMP:  26; 6HR MAX TEMP:  31; 6HR PCP:  0.06;

W YELLOWSTONE  NOT AVBL

$$
WYZ002>013-054>058-071-098>099-271900-
NORTHERN WYOMING

CITY           SKY/WX    TMP DP  RH WIND       PRES   REMARKS
JACKSON        PTSUNNY   36  27  69 S9        29.67R WCI  29
CODY           PTSUNNY   44  33  65 N20       29.59F
GREYBULL       CLOUDY    49  36  61 NW25G36   29.53F
6HR MIN TEMP:  40; 6HR MAX TEMP:  49; 6HR PCP:  0.01;

WORLAND        CLOUDY    44  37  76 N18       29.55F
6HR MIN TEMP:  39; 6HR MAX TEMP:  44; 6HR PCP: TRACE;

SHERIDAN       LGT SNOW  34  32  92 N3        29.60R VSB 3/4
6HR MIN TEMP:  32; 6HR MAX TEMP:  37; 6HR PCP:  0.08;

BUFFALO        LGT SNOW  35  32  88 N17       29.57R FOG     WCI  25
6HR MIN TEMP:  31; 6HR MAX TEMP:  37; 6HR PCP: TRACE;

GILLETTE       CLOUDY    40  35  83 SE10      29.56S WCI  33
6HR MIN TEMP:  32; 6HR MAX TEMP:  41;

HULETT         FAIR      46  32  57 E10       29.59R
NEWCASTLE      MOCLDY    45  32  61 SE14G22   29.57S

$$
WYZ014>020-022>026-101>103-271900-
CENTRAL WYOMING

CITY           SKY/WX    TMP DP  RH WIND       PRES   REMARKS
BIG PINEY      CLOUDY    39  22  50 NW22G29   29.63R WCI  29
6HR MIN TEMP:  28; 6HR MAX TEMP:  41;

PINEDALE       FLURRIES  34  30  86 NW20G28   29.62S WCI  22
DUBOIS         CLOUDY    32  27  80 NW13G22   29.57R WCI  22
LANDER         LGT SNOW  32  32 100 NW8       29.56R FOG     WCI  25
6HR MIN TEMP:  32; 6HR MAX TEMP:  45; 6HR PCP:  0.18;

RIVERTON       CLOUDY    42  33  70 N23G30    29.54R
6HR MIN TEMP:  34; 6HR MAX TEMP:  47;

CASPER         PTSUNNY   42  35  76 N13       29.51S
6HR MIN TEMP:  39; 6HR MAX TEMP:  47; 6HR PCP: TRACE;

DOUGLAS        CLOUDY    50  39  66 SE18      29.50F
6HR MIN TEMP:  37; 6HR MAX TEMP:  50; 6HR PCP:  0.04;


$$
WYZ021-027>030-104>119-271900-
SOUTHERN WYOMING

CITY           SKY/WX    TMP DP  RH WIND       PRES   REMARKS
EVANSTON       CLOUDY    33  23  66 W23       29.76R WCI  21
6HR MIN TEMP:  28; 6HR MAX TEMP:  34; 6HR PCP: TRACE;

KEMMERER         N/A     32  27  80 W30G36    29.70R WCI  18
FORT BRIDGER   MOCLDY    36  25  64 W26G38    29.76R WCI  24
ROCK SPRINGS   CLOUDY    39  25  57 W33G45    29.63F WCI  27
6HR MIN TEMP:  32; 6HR MAX TEMP:  40;

DIXON            N/A     42  25  50 W18       29.67S
RAWLINS        CLOUDY    40  28  62 W21G28    29.58S WCI  30
6HR MIN TEMP:  33; 6HR MAX TEMP:  42; 6HR PCP:  0.01;

SARATOGA       MOCLDY    41  27  56 W23G35    29.61F
LARAMIE        LGT SNOW  33  31  92 NW12      29.56R FOG     WCI  24
6HR MIN TEMP:  32; 6HR MAX TEMP:  41; 6HR PCP:  0.09;

CHEYENNE       PTSUNNY   43  37  79 E7        29.54F
6HR MIN TEMP:  38; 6HR MAX TEMP:  43; 6HR PCP:  0.09;

TORRINGTON     FAIR      47  41  80 SE8       29.53F
6HR MIN TEMP:  35; 6HR MAX TEMP:  47; 6HR PCP:  0.01;

PINE BLUFFS    CLOUDY    41  39  93 N6        29.56F

$$




USA.gov is the U.S. government's official web portal to all federal, state and local government web resources and services.